Location: Leuk
(46.3174°N, 7.6341°E)
Time: 03:20:43
(UTC+00:00)

ISS - Visible Passes

Search period start: 15 May 2021 00:00
Search period end: 25 May 2021 00:00
Orbit: 417 x 422 km, 51.6° (Epoch: 14 May)

Date Brightness Start Highest point End Pass type
(mag) Time Alt. Az. Time Alt. Az. Time Alt. Az.
15 May -1.9 00:04:25 10° WNW 00:07:31 32° N 00:10:36 10° ENE visible
15 May -3.5 01:41:18 10° WNW 01:44:41 71° NNE 01:48:03 10° ESE visible
15 May -2.5 03:18:34 10° W 03:21:14 22° SW 03:23:53 10° S visible
15 May -3.0 20:02:59 10° SSW 20:05:59 31° SE 20:09:00 10° ENE visible
15 May -3.1 21:39:22 10° W 21:42:40 55° NNW 21:46:01 10° ENE visible
15 May -1.9 23:16:51 10° WNW 23:19:56 31° N 23:23:00 10° ENE visible
16 May -3.0 00:53:52 10° WNW 00:57:11 52° NNE 01:00:30 10° E visible
16 May -3.1 02:30:49 10° WNW 02:33:55 33° SW 02:36:59 10° SSE visible
16 May -3.6 20:51:50 10° WSW 20:55:11 75° NNW 20:58:34 10° ENE visible
16 May -1.9 22:29:14 10° WNW 22:32:19 32° N 22:35:26 10° ENE visible
17 May -2.5 00:06:25 10° WNW 00:09:39 41° NNE 00:12:53 10° E visible
17 May -3.7 01:43:14 10° WNW 01:46:33 52° SSW 01:49:50 10° SE visible
17 May -3.9 20:04:22 10° SW 20:07:43 75° SSE 20:11:05 10° ENE visible
17 May -2.1 21:41:36 10° W 21:44:45 36° N 21:47:54 10° ENE visible
17 May -2.1 23:18:56 10° WNW 23:22:05 35° N 23:22:52 30° NE visible
18 May -0.9 00:55:44 10° WNW 00:55:45 10° WNW 00:55:45 10° WNW visible
18 May -2.5 20:53:57 10° W 20:57:10 42° NNW 21:00:25 10° ENE visible
18 May -2.0 22:31:24 10° WNW 22:34:29 32° N 22:36:27 18° ENE visible
19 May -1.5 00:08:16 10° WNW 00:09:22 19° WNW 00:09:22 19° WNW visible
19 May -2.9 20:06:19 10° W 20:09:38 54° NNW 20:12:57 10° ENE visible
19 May -1.9 21:43:49 10° WNW 21:46:52 31° N 21:49:57 10° ENE visible
19 May -2.4 23:20:49 10° WNW 23:23:11 37° NNW 23:23:11 37° NNW visible
20 May -1.9 20:56:10 10° WNW 20:59:16 32° N 21:02:22 10° ENE visible
20 May -2.6 22:33:21 10° WNW 22:36:35 41° NNE 22:37:05 38° NE visible
21 May -2.1 20:08:31 10° W 20:11:40 36° N 20:14:49 10° ENE visible
21 May -2.2 21:45:51 10° WNW 21:49:00 35° N 21:51:01 18° ENE visible
21 May -1.7 23:22:40 10° WNW 23:23:57 21° WNW 23:23:57 21° WNW visible
22 May -2.0 20:58:18 10° WNW 21:01:23 32° N 21:04:29 10° ENE visible
22 May -3.1 22:35:11 10° WNW 22:37:56 54° NW 22:37:56 54° NW visible
23 May -1.9 20:10:43 10° WNW 20:13:46 31° N 20:16:50 10° ENE visible
23 May -3.1 21:47:43 10° WNW 21:51:01 52° NNE 21:51:56 38° ENE visible
23 May -0.9 23:24:40 10° WNW 23:24:52 11° WNW 23:24:52 11° WNW visible
24 May -2.6 21:00:13 10° WNW 21:03:27 41° NNE 21:05:57 15° E visible
24 May -2.2 22:37:03 10° WNW 22:38:54 28° W 22:38:54 28° W visible
